Retour au catalogue

OPS 4682 DEB

ActifPO
NORAD 51508·DEBRIS·🇺🇸 United States

Lancé Apr 3, 1965 depuis Vandenberg Space Force Base

Loading…

Prochains Passages (prochaines 24 heures)

TLE

FraisSource: Space-Track

Époque: Sep 13, 2026, 03:26 UTC

1 51508U 65027GU  26256.14349863  .00000196  00000-0  64250-3 0  9994
2 51508  90.2602  18.2460 0028623 175.8549 304.7272 12.97978259615603

Suivez OPS 4682 DEB en temps réel avec AllMySat

Download on the App Store